| time (UTC) | temp F | wind direction | speed MPH | gust MPH | rain 1hr in | rain 24hr in | rain mn in | humidity % | barometer mb |
| 20260505163403 | 67 | 203 | 4.0 | 7.0 | 0.00 | 0.00 | 0.00 | 1009.2 | |
| 20260505162902 | 67 | 213 | 3.0 | 8.0 | 0.00 | 0.00 | 0.00 | 1008.8 | |
| 20260505162403 | 67 | 244 | 2.0 | 9.0 | 0.00 | 0.00 | 0.00 | 1009.2 | |
| 20260505161902 | 67 | 210 | 4.0 | 11.0 | 0.00 | 0.00 | 0.00 | 1009.2 | |
| 20260505161445 | 67 | 205 | 4.0 | 11.0 | 0.00 | 0.00 | 0.00 | 1009.2 | |
| 20260505160903 | 68 | 205 | 4.0 | 10.0 | 0.00 | 0.00 | 0.00 | 1008.8 | |
| 20260505160425 | 68 | 207 | 3.0 | 9.0 | 0.00 | 0.00 | 0.00 | 1008.8 | |
| 20260505152903 | 66 | 196 | 5.0 | 9.0 | 0.00 | 0.00 | 0.00 | 1008.8 | |
| 20260505152403 | 66 | 203 | 4.0 | 8.0 | 0.00 | 0.00 | 0.00 | 1008.5 | |
| 20260505151903 | 66 | 216 | 3.0 | 8.0 | 0.00 | 0.00 | 0.00 | 1008.5 | |
| 20260505151403 | 67 | 274 | 0.0 | 17.0 | 0.00 | 0.00 | 0.00 | 1008.5 | |
| 20260505150902 | 66 | 207 | 4.0 | 17.0 | 0.00 | 0.00 | 0.00 | 1008.8 | |
| 20260505150403 | 66 | 216 | 3.0 | 6.0 | 0.00 | 0.00 | 0.00 | 1009.2 | |
| 20260505140403 | 62 | 201 | 2.0 | 5.0 | 0.00 | 0.00 | 0.00 | 1007.8 | |
| 20260505124902 | 57 | 190 | 2.0 | 7.0 | 0.00 | 0.00 | 0.00 | 1007.8 | |
| 20260505124403 | 57 | 197 | 3.0 | 7.0 | 0.00 | 0.00 | 0.00 | 1008.2 | |
| 20260505123903 | 57 | 184 | 3.0 | 6.0 | 0.00 | 0.00 | 0.00 | 1008.2 | |
| 20260505123403 | 57 | 202 | 4.0 | 6.0 | 0.00 | 0.00 | 0.00 | 1007.8 | |
| 20260505122903 | 57 | 199 | 3.0 | 6.0 | 0.00 | 0.00 | 0.00 | 1007.5 | |
| 20260505122403 | 56 | 194 | 3.0 | 6.0 | 0.00 | 0.00 | 0.00 | 1008.2 | |
| 20260505121903 | 56 | 203 | 3.0 | 5.0 | 0.00 | 0.00 | 0.00 | 1008.2 | |
| 20260505121404 | 56 | 204 | 3.0 | 7.0 | 0.00 | 0.00 | 0.00 | 1007.8 | |
| 20260505120903 | 56 | 193 | 2.0 | 7.0 | 0.00 | 0.00 | 0.00 | 1007.8 | |
| 20260505120403 | 56 | 200 | 3.0 | 5.0 | 0.00 | 0.00 | 0.00 | 1007.8 | |
| 20260505115903 | 56 | 207 | 4.0 | 5.0 | 0.00 | 0.00 | 0.00 | 1007.5 | |
| 20260505115403 | 56 | 198 | 3.0 | 5.0 | 0.00 | 0.00 | 0.00 | 1007.8 | |
| 20260505114903 | 56 | 200 | 3.0 | 5.0 | 0.00 | 0.00 | 0.00 | 1007.5 | |
| 20260505114424 | 56 | 201 | 1.0 | 3.0 | 0.00 | 0.00 | 0.00 | 1007.5 | |
| 20260505113903 | 56 | 192 | 1.0 | 3.0 | 0.00 | 0.00 | 0.00 | 1007.5 | |
| 20260505113403 | 55 | 210 | 0.0 | 4.0 | 0.00 | 0.00 | 0.00 | 1007.5 | |
| 20260505112924 | 55 | 192 | 2.0 | 4.0 | 0.00 | 0.00 | 0.00 | 1007.1 | |
| 20260505112403 | 55 | 179 | 1.0 | 5.0 | 0.00 | 0.00 | 0.00 | 1006.8 | |
| 20260505111924 | 55 | 181 | 2.0 | 5.0 | 0.00 | 0.00 | 0.00 | 1006.5 | |
| 20260505111403 | 55 | 190 | 3.0 | 5.0 | 0.00 | 0.00 | 0.00 | 1006.5 | |
| 20260505110903 | 55 | 191 | 3.0 | 5.0 | 0.00 | 0.00 | 0.00 | 1007.1 | |
| 20260505110403 | 55 | 197 | 3.0 | 4.0 | 0.00 | 0.00 | 0.00 | 1006.8 | |
| 20260505101903 | 56 | 221 | 0.0 | 6.0 | 0.00 | 0.00 | 0.00 | 1008.2 | |
| 20260505101403 | 56 | 271 | 3.0 | 6.0 | 0.00 | 0.00 | 0.00 | 1007.8 | |
| 20260505100903 | 56 | 262 | 0.0 | 5.0 | 0.00 | 0.00 | 0.00 | 1007.8 | |
| 20260505100403 | 56 | 270 | 3.0 | 10.0 | 0.00 | 0.00 | 0.00 | 1008.5 | |
| 20260505095903 | 56 | 282 | 5.0 | 10.0 | 0.00 | 0.00 | 0.00 | 1007.8 | |
| 20260505095403 | 57 | 282 | 3.0 | 8.0 | 0.00 | 0.00 | 0.00 | 1008.2 | |
| 20260505094903 | 57 | 254 | 2.0 | 8.0 | 0.00 | 0.00 | 0.00 | 1007.8 | |
| 20260505094403 | 57 | 269 | 1.0 | 8.0 | 0.00 | 0.00 | 0.00 | 1007.8 | |
| 20260505093903 | 57 | 256 | 3.0 | 11.0 | 0.00 | 0.00 | 0.00 | 1008.8 | |
| 20260505093403 | 58 | 254 | 3.0 | 11.0 | 0.00 | 0.00 | 0.00 | 1008.5 | |
| 20260505092924 | 57 | 276 | 2.0 | 11.0 | 0.00 | 0.00 | 0.00 | 1008.2 | |
| 20260505092403 | 58 | 293 | 3.0 | 11.0 | 0.00 | 0.00 | 0.00 | 1008.2 | |
| 20260505091924 | 58 | 279 | 4.0 | 6.0 | 0.00 | 0.00 | 0.00 | 1008.5 | |
| 20260505091403 | 58 | 281 | 2.0 | 9.0 | 0.00 | 0.00 | 0.00 | 1008.5 | |
| 20260505090903 | 59 | 289 | 5.0 | 9.0 | 0.00 | 0.00 | 0.00 | 1007.8 | |
| 20260505090403 | 60 | 279 | 4.0 | 10.0 | 0.00 | 0.00 | 0.00 | 1007.8 | |
| 20260505085903 | 60 | 293 | 5.0 | 10.0 | 0.00 | 0.00 | 0.00 | 1008.5 | |
| 20260505085424 | 60 | 311 | 3.0 | 8.0 | 0.00 | 0.00 | 0.00 | 1007.8 | |
| 20260505084903 | 61 | 309 | 5.0 | 7.0 | 0.00 | 0.00 | 0.00 | 1007.5 | |
| 20260505084403 | 61 | 309 | 2.0 | 5.0 | 0.00 | 0.00 | 0.00 | 1007.5 | |
| 20260505083903 | 62 | 298 | 2.0 | 7.0 | 0.00 | 0.00 | 0.00 | 1007.5 | |
| 20260505083403 | 62 | 323 | 2.0 | 7.0 | 0.00 | 0.00 | 0.00 | 1007.8 | |
| 20260505082904 | 62 | 308 | 3.0 | 7.0 | 0.00 | 0.00 | 0.00 | 1007.1 | |
| 20260505082403 | 62 | 319 | 1.0 | 9.0 | 0.00 | 0.00 | 0.00 | 1007.1 | |
| 20260505081902 | 62 | 301 | 3.0 | 10.0 | 0.00 | 0.00 | 0.00 | 1007.5 | |
| 20260505081403 | 63 | 300 | 5.0 | 10.0 | 0.00 | 0.00 | 0.00 | 1007.1 | |
| 20260505080903 | 63 | 293 | 4.0 | 11.0 | 0.00 | 0.00 | 0.00 | 1007.8 | |
| 20260505080445 | 64 | 290 | 7.0 | 12.0 | 0.00 | 0.00 | 0.00 | 1007.5 | |
| 20260505075903 | 64 | 297 | 7.0 | 12.0 | 0.00 | 0.00 | 0.00 | 1006.8 | |
| 20260505075425 | 65 | 293 | 6.0 | 18.0 | 0.00 | 0.00 | 0.00 | 1006.8 | |
| 20260505074903 | 66 | 284 | 8.0 | 18.0 | 0.00 | 0.00 | 0.00 | 1007.1 | |
| 20260505074424 | 66 | 287 | 7.0 | 15.0 | 0.00 | 0.00 | 0.00 | 1007.8 | |
| 20260505073903 | 67 | 292 | 4.0 | 13.0 | 0.00 | 0.00 | 0.00 | 1007.1 | |
| 20260505073403 | 67 | 268 | 5.0 | 13.0 | 0.00 | 0.00 | 0.00 | 1007.1 | |
| 20260505072903 | 67 | 268 | 5.0 | 12.0 | 0.00 | 0.00 | 0.00 | 1007.1 | |
| 20260505072403 | 68 | 213 | 3.0 | 12.0 | 0.00 | 0.00 | 0.00 | 1006.8 | |
| 20260505070903 | 68 | 216 | 3.0 | 11.0 | 0.00 | 0.00 | 0.00 | 1006.8 | |
| 20260505070403 | 68 | 208 | 4.0 | 11.0 | 0.00 | 0.00 | 0.00 | 1006.8 | |
| 20260505065903 | 68 | 208 | 4.0 | 14.0 | 0.00 | 0.00 | 0.00 | 1006.1 | |
| 20260505065403 | 68 | 195 | 5.0 | 14.0 | 0.00 | 0.00 | 0.00 | 1006.8 | |
| 20260505064905 | 68 | 202 | 4.0 | 9.0 | 0.00 | 0.00 | 0.00 | 1006.5 | |
| 20260505064403 | 68 | 210 | 2.0 | 9.0 | 0.00 | 0.00 | 0.00 | 1006.5 | |
| 20260505063903 | 68 | 204 | 3.0 | 10.0 | 0.00 | 0.00 | 0.00 | 1006.5 | |
| 20260505063404 | 68 | 219 | 4.0 | 10.0 | 0.00 | 0.00 | 0.00 | 1006.8 | |
| 20260505062903 | 68 | 203 | 4.0 | 9.0 | 0.00 | 0.00 | 0.00 | 1006.5 | |
| 20260505062403 | 68 | 200 | 4.0 | 10.0 | 0.00 | 0.00 | 0.00 | 1006.1 | |
| 20260505061903 | 68 | 213 | 3.0 | 10.0 | 0.00 | 0.00 | 0.00 | 1006.5 | |
| 20260505061403 | 68 | 198 | 5.0 | 10.0 | 0.00 | 0.00 | 0.00 | 1006.5 | |
| 20260505060903 | 68 | 204 | 3.0 | 8.0 | 0.00 | 0.00 | 0.00 | 1006.1 | |
| 20260505060424 | 68 | 200 | 3.0 | 7.0 | 0.00 | 0.00 | 0.00 | 1005.8 | |
| 20260505055903 | 68 | 197 | 3.0 | 8.0 | 0.00 | 0.00 | 0.00 | 1005.5 | |
| 20260505055403 | 68 | 212 | 4.0 | 8.0 | 0.00 | 0.00 | 0.00 | 1006.5 | |
| 20260505054903 | 68 | 192 | 3.0 | 8.0 | 0.00 | 0.00 | 0.00 | 1005.8 | |
| 20260505054403 | 68 | 207 | 4.0 | 8.0 | 0.00 | 0.00 | 0.00 | 1005.8 | |
| 20260505053902 | 68 | 193 | 3.0 | 10.0 | 0.00 | 0.00 | 0.00 | 1005.5 | |
| 20260505053403 | 68 | 197 | 4.0 | 10.0 | 0.00 | 0.00 | 0.00 | 1006.1 | |
| 20260505052924 | 67 | 199 | 3.0 | 7.0 | 0.00 | 0.00 | 0.00 | 1005.5 | |
| 20260505052403 | 68 | 195 | 4.0 | 7.0 | 0.00 | 0.00 | 0.00 | 1005.8 | |
| 20260505051903 | 68 | 200 | 4.0 | 7.0 | 0.00 | 0.00 | 0.00 | 1005.8 | |
| 20260505051403 | 68 | 200 | 4.0 | 10.0 | 0.00 | 0.00 | 0.00 | 1006.5 | |
| 20260505050924 | 68 | 196 | 3.0 | 12.0 | 0.00 | 0.00 | 0.00 | 1005.8 | |
| 20260505050403 | 68 | 196 | 5.0 | 12.0 | 0.00 | 0.00 | 0.00 | 1005.8 | |
| 20260505041424 | 68 | 195 | 3.0 | 5.0 | 0.00 | 0.00 | 0.00 | 1006.5 | |
| 20260505040925 | 68 | 184 | 3.0 | 5.0 | 0.00 | 0.00 | 0.00 | 1006.1 | |
| 20260505040424 | 67 | 184 | 3.0 | 5.0 | 0.00 | 0.00 | 0.00 | 1006.8 | |
| 20260505035903 | 67 | 180 | 2.0 | 5.0 | 0.00 | 0.00 | 0.00 | 1006.5 | |
| 20260505035403 | 68 | 191 | 2.0 | 5.0 | 0.00 | 0.00 | 0.00 | 1006.5 | |
| 20260505034903 | 68 | 186 | 3.0 | 6.0 | 0.00 | 0.00 | 0.00 | 1006.5 | |
| 20260505034403 | 68 | 193 | 3.0 | 6.0 | 0.00 | 0.00 | 0.00 | 1006.8 | |
| 20260505033903 | 68 | 186 | 3.0 | 5.0 | 0.00 | 0.00 | 0.00 | 1006.8 | |
| 20260505033424 | 68 | 181 | 3.0 | 6.0 | 0.00 | 0.00 | 0.00 | 1006.1 | |
| 20260505032903 | 68 | 199 | 2.0 | 6.0 | 0.00 | 0.00 | 0.00 | 1006.5 | |
| 20260505032403 | 68 | 194 | 3.0 | 5.0 | 0.00 | 0.00 | 0.00 | 1006.5 | |
| 20260505031924 | 68 | 193 | 2.0 | 5.0 | 0.00 | 0.00 | 0.00 | 1007.1 | |
| 20260505031402 | 68 | 193 | 3.0 | 5.0 | 0.00 | 0.00 | 0.00 | 1007.1 | |
| 20260505030903 | 68 | 184 | 3.0 | 6.0 | 0.00 | 0.00 | 0.00 | 1006.5 | |
| 20260505030403 | 68 | 199 | 3.0 | 6.0 | 0.00 | 0.00 | 0.00 | 1007.1 | |
| 20260505025904 | 68 | 198 | 3.0 | 5.0 | 0.00 | 0.00 | 0.00 | 1006.5 | |
| 20260505025403 | 68 | 193 | 3.0 | 5.0 | 0.00 | 0.00 | 0.00 | 1006.1 | |
| 20260505024903 | 68 | 196 | 2.0 | 5.0 | 0.00 | 0.00 | 0.00 | 1006.5 | |
| 20260505024403 | 68 | 206 | 3.0 | 5.0 | 0.00 | 0.00 | 0.00 | 1006.8 | |
| 20260505023902 | 68 | 186 | 2.0 | 4.0 | 0.00 | 0.00 | 0.00 | 1006.8 | |
| 20260505023403 | 68 | 190 | 2.0 | 4.0 | 0.00 | 0.00 | 0.00 | 1006.5 | |
| 20260505022904 | 68 | 197 | 2.0 | 4.0 | 0.00 | 0.00 | 0.00 | 1006.1 | |
| 20260505022403 | 68 | 195 | 2.0 | 5.0 | 0.00 | 0.00 | 0.00 | 1006.5 | |
| 20260505021903 | 68 | 198 | 3.0 | 5.0 | 0.00 | 0.00 | 0.00 | 1006.1 | |
| 20260505021403 | 68 | 190 | 2.0 | 3.0 | 0.00 | 0.00 | 0.00 | 1005.5 | |
| 20260505020903 | 68 | 184 | 2.0 | 4.0 | 0.00 | 0.00 | 0.00 | 1006.1 | |
| 20260505020402 | 69 | 189 | 2.0 | 5.0 | 0.00 | 0.00 | 0.00 | 1006.1 | |
| 20260505015903 | 69 | 194 | 2.0 | 6.0 | 0.00 | 0.00 | 0.00 | 1005.5 | |
| 20260505015404 | 69 | 192 | 3.0 | 6.0 | 0.00 | 0.00 | 0.00 | 1005.8 | |
| 20260505014903 | 69 | 182 | 2.0 | 3.0 | 0.00 | 0.00 | 0.00 | 1006.1 | |
| 20260505014403 | 69 | 190 | 2.0 | 3.0 | 0.00 | 0.00 | 0.00 | 1006.1 | |
| 20260505013903 | 69 | 196 | 2.0 | 4.0 | 0.00 | 0.00 | 0.00 | 1006.1 | |
| 20260505013403 | 69 | 198 | 2.0 | 5.0 | 0.00 | 0.00 | 0.00 | 1006.1 | |
| 20260505012903 | 69 | 193 | 2.0 | 5.0 | 0.00 | 0.00 | 0.00 | 1005.8 | |
| 20260505012403 | 69 | 199 | 2.0 | 4.0 | 0.00 | 0.00 | 0.00 | 1005.5 | |
| 20260505011903 | 70 | 198 | 2.0 | 5.0 | 0.00 | 0.00 | 0.00 | 1005.5 | |
| 20260505011403 | 70 | 193 | 2.0 | 7.0 | 0.00 | 0.00 | 0.00 | 1005.5 | |
| 20260505010903 | 70 | 201 | 3.0 | 7.0 | 0.00 | 0.00 | 0.00 | 1005.8 | |
| 20260505010424 | 70 | 190 | 2.0 | 4.0 | 0.00 | 0.00 | 0.00 | 1005.5 | |
| 20260505005903 | 70 | 193 | 3.0 | 7.0 | 0.00 | 0.00 | 0.00 | 1005.5 | |
| 20260505005402 | 70 | 187 | 4.0 | 7.0 | 0.00 | 0.00 | 0.00 | 1005.8 | |
| 20260505004903 | 71 | 198 | 3.0 | 9.0 | 0.00 | 0.00 | 0.00 | 1005.5 | |
| 20260505004403 | 71 | 198 | 3.0 | 9.0 | 0.00 | 0.00 | 0.00 | 1005.5 | |
| 20260505003903 | 71 | 199 | 4.0 | 8.0 | 0.00 | 0.00 | 0.00 | 1005.8 | |
| 20260505003402 | 72 | 206 | 4.0 | 8.0 | 0.00 | 0.00 | 0.00 | 1005.8 | |
| 20260505002903 | 72 | 198 | 3.0 | 8.0 | 0.00 | 0.00 | 0.00 | 1005.5 | |
| 20260505002402 | 72 | 205 | 4.0 | 9.0 | 0.00 | 0.00 | 0.00 | 1005.8 | |
| 20260505001904 | 72 | 196 | 3.0 | 10.0 | 0.00 | 0.00 | 0.00 | 1005.8 | |
| 20260505001403 | 72 | 204 | 4.0 | 10.0 | 0.00 | 0.00 | 0.00 | 1005.8 | |
| 20260505000903 | 72 | 201 | 3.0 | 9.0 | 0.00 | 0.00 | 0.00 | 1005.8 | |
| 20260505000403 | 72 | 189 | 3.0 | 5.0 | 0.00 | 0.00 | 0.00 | 1005.8 | |
| 20260504235945 | 72 | 198 | 1.0 | 6.0 | 0.00 | 0.00 | 0.00 | 1005.8 | |
| 20260504235403 | 72 | 195 | 3.0 | 6.0 | 0.00 | 0.00 | 0.00 | 1005.5 | |
| 20260504234903 | 73 | 180 | 3.0 | 5.0 | 0.00 | 0.00 | 0.00 | 1005.8 | |
| 20260504234403 | 73 | 199 | 3.0 | 7.0 | 0.00 | 0.00 | 0.00 | 1005.8 | |
| 20260504233903 | 73 | 201 | 2.0 | 7.0 | 0.00 | 0.00 | 0.00 | 1005.5 | |
| 20260504233403 | 72 | 191 | 3.0 | 5.0 | 0.00 | 0.00 | 0.00 | 1005.8 | |
| 20260504232903 | 72 | 192 | 2.0 | 5.0 | 0.00 | 0.00 | 0.00 | 1005.8 | |
| 20260504232446 | 73 | 198 | 3.0 | 5.0 | 0.00 | 0.00 | 0.00 | 1006.1 | |
| 20260504231903 | 73 | 192 | 2.0 | 5.0 | 0.00 | 0.00 | 0.00 | 1006.1 | |
| 20260504231403 | 73 | 200 | 3.0 | 6.0 | 0.00 | 0.00 | 0.00 | 1005.8 | |
| 20260504230903 | 73 | 192 | 3.0 | 6.0 | 0.00 | 0.00 | 0.00 | 1005.8 | |
| 20260504230424 | 72 | 188 | 3.0 | 6.0 | 0.00 | 0.00 | 0.00 | 1005.1 | |
| 20260504225903 | 73 | 192 | 3.0 | 6.0 | 0.00 | 0.00 | 0.00 | 1006.1 | |
| 20260504225403 | 74 | 184 | 3.0 | 7.0 | 0.00 | 0.00 | 0.00 | 1005.8 | |
| 20260504224903 | 73 | 197 | 2.0 | 7.0 | 0.00 | 0.00 | 0.00 | 1006.1 | |
| 20260504224403 | 72 | 204 | 2.0 | 6.0 | 0.00 | 0.00 | 0.00 | 1006.5 | |
| 20260504223902 | 72 | 183 | 3.0 | 6.0 | 0.00 | 0.00 | 0.00 | 1006.1 | |
| 20260504222903 | 73 | 191 | 3.0 | 11.0 | 0.00 | 0.00 | 0.00 | 1006.5 | |
| 20260504222424 | 74 | 212 | 3.0 | 5.0 | 0.00 | 0.00 | 0.00 | 1006.5 | |
| 20260504221903 | 74 | 203 | 3.0 | 6.0 | 0.00 | 0.00 | 0.00 | 1006.8 | |
| 20260504221403 | 72 | 202 | 3.0 | 6.0 | 0.00 | 0.00 | 0.00 | 1006.5 | |
| 20260504220924 | 72 | 207 | 2.0 | 5.0 | 0.00 | 0.00 | 0.00 | 1006.1 | |
| 20260504220425 | 72 | 201 | 2.0 | 4.0 | 0.00 | 0.00 | 0.00 | 1006.1 | |
| 20260504215903 | 72 | 198 | 2.0 | 8.0 | 0.00 | 0.00 | 0.00 | 1005.8 | |
| 20260504215403 | 72 | 211 | 2.0 | 11.0 | 0.00 | 0.00 | 0.00 | 1006.5 | |
| 20260504214903 | 72 | 207 | 5.0 | 11.0 | 0.00 | 0.00 | 0.00 | 1006.8 | |
| 20260504214403 | 73 | 204 | 5.0 | 11.0 | 0.00 | 0.00 | 0.00 | 1007.1 | |
| 20260504213903 | 73 | 216 | 3.0 | 11.0 | 0.00 | 0.00 | 0.00 | 1007.5 | |
| 20260504213403 | 73 | 202 | 3.0 | 11.0 | 0.00 | 0.00 | 0.00 | 1006.8 | |
| 20260504212903 | 72 | 197 | 4.0 | 10.0 | 0.00 | 0.00 | 0.00 | 1006.8 | |
| 20260504212404 | 71 | 237 | 4.0 | 10.0 | 0.00 | 0.00 | 0.00 | 1007.1 | |
| 20260504211903 | 70 | 227 | 5.0 | 11.0 | 0.00 | 0.00 | 0.00 | 1007.1 | |
| 20260504211403 | 70 | 202 | 3.0 | 11.0 | 0.00 | 0.00 | 0.00 | 1006.1 | |
| 20260504210903 | 70 | 195 | 3.0 | 7.0 | 0.00 | 0.00 | 0.00 | 1006.5 | |
| 20260504210403 | 70 | 203 | 3.0 | 7.0 | 0.00 | 0.00 | 0.00 | 1007.5 | |
| 20260504205903 | 70 | 217 | 2.0 | 8.0 | 0.00 | 0.00 | 0.00 | 1007.1 | |
| 20260504205425 | 69 | 197 | 4.0 | 8.0 | 0.00 | 0.00 | 0.00 | 1006.8 | |
| 20260504204903 | 69 | 199 | 3.0 | 10.0 | 0.00 | 0.00 | 0.00 | 1007.1 | |
| 20260504204403 | 69 | 187 | 1.0 | 12.0 | 0.00 | 0.00 | 0.00 | 1007.8 | |
| 20260504203903 | 69 | 235 | 5.0 | 11.0 | 0.00 | 0.00 | 0.00 | 1007.8 | |
| 20260504203403 | 68 | 245 | 2.0 | 9.0 | 0.00 | 0.00 | 0.00 | 1007.8 | |
| 20260504202945 | 68 | 227 | 3.0 | 9.0 | 0.00 | 0.00 | 0.00 | 1008.2 | |
| 20260504202403 | 68 | 192 | 4.0 | 14.0 | 0.00 | 0.00 | 0.00 | 1008.2 | |
| 20260504201924 | 68 | 217 | 4.0 | 14.0 | 0.00 | 0.00 | 0.00 | 1007.8 | |
| 20260504201403 | 68 | 205 | 3.0 | 6.0 | 0.00 | 0.00 | 0.00 | 1008.2 | |
| 20260504200903 | 68 | 201 | 3.0 | 6.0 | 0.00 | 0.00 | 0.00 | 1008.2 | |
| 20260504200403 | 68 | 190 | 2.0 | 9.0 | 0.00 | 0.00 | 0.00 | 1008.2 | |
| 20260504195903 | 68 | 213 | 5.0 | 9.0 | 0.00 | 0.00 | 0.00 | 1007.8 | |
| 20260504195403 | 68 | 185 | 3.0 | 8.0 | 0.00 | 0.00 | 0.00 | 1008.2 | |
| 20260504194903 | 68 | 226 | 4.0 | 8.0 | 0.00 | 0.00 | 0.00 | 1007.5 | |
| 20260504194403 | 67 | 196 | 3.0 | 7.0 | 0.00 | 0.00 | 0.00 | 1007.8 | |
| 20260504193924 | 67 | 180 | 4.0 | 7.0 | 0.00 | 0.00 | 0.00 | 1007.8 | |
| 20260504193403 | 67 | 199 | 2.0 | 7.0 | 0.00 | 0.00 | 0.00 | 1008.2 | |
| 20260504192924 | 67 | 205 | 4.0 | 9.0 | 0.00 | 0.00 | 0.00 | 1008.5 | |
| 20260504192403 | 67 | 190 | 3.0 | 9.0 | 0.00 | 0.00 | 0.00 | 1008.8 | |
| 20260504191903 | 68 | 194 | 4.0 | 9.0 | 0.00 | 0.00 | 0.00 | 1009.5 | |
| 20260504191403 | 68 | 200 | 3.0 | 16.0 | 0.00 | 0.00 | 0.00 | 1008.8 | |
| 20260504190924 | 68 | 208 | 6.0 | 16.0 | 0.00 | 0.00 | 0.00 | 1008.8 | |
| 20260504190404 | 68 | 193 | 5.0 | 16.0 | 0.00 | 0.00 | 0.00 | 1008.8 | |
| 20260504185903 | 69 | 209 | 6.0 | 10.0 | 0.00 | 0.00 | 0.00 | 1008.5 | |
| 20260504185403 | 70 | 219 | 5.0 | 12.0 | 0.00 | 0.00 | 0.00 | 1008.5 | |
| 20260504184903 | 70 | 203 | 3.0 | 13.0 | 0.00 | 0.00 | 0.00 | 1009.2 | |
| 20260504184403 | 70 | 220 | 3.0 | 13.0 | 0.00 | 0.00 | 0.00 | 1008.5 | |
| 20260504183903 | 70 | 212 | 4.0 | 10.0 | 0.00 | 0.00 | 0.00 | 1008.5 | |
| 20260504183403 | 70 | 192 | 2.0 | 11.0 | 0.00 | 0.00 | 0.00 | 1008.5 | |
| 20260504182903 | 71 | 214 | 4.0 | 12.0 | 0.00 | 0.00 | 0.00 | 1008.5 | |
| 20260504182404 | 71 | 221 | 4.0 | 12.0 | 0.00 | 0.00 | 0.00 | 1008.5 | |
| 20260504181925 | 71 | 205 | 5.0 | 11.0 | 0.00 | 0.00 | 0.00 | 1008.5 | |
| 20260504181403 | 70 | 200 | 4.0 | 12.0 | 0.00 | 0.00 | 0.00 | 1007.8 | |
| 20260504180903 | 70 | 202 | 4.0 | 12.0 | 0.00 | 0.00 | 0.00 | 1008.2 | |
| 20260504180403 | 72 | 195 | 3.0 | 10.0 | 0.00 | 0.00 | 0.00 | 1007.5 | |
| 20260504175903 | 71 | 224 | 4.0 | 13.0 | 0.00 | 0.00 | 0.00 | 1006.8 | |
| 20260504175403 | 70 | 205 | 5.0 | 13.0 | 0.00 | 0.00 | 0.00 | 1007.8 | |
| 20260504174903 | 70 | 202 | 3.0 | 12.0 | 0.00 | 0.00 | 0.00 | 1007.8 | |
| 20260504174403 | 70 | 205 | 7.0 | 12.0 | 0.00 | 0.00 | 0.00 | 1007.8 | |
| 20260504173902 | 71 | 204 | 4.0 | 11.0 | 0.00 | 0.00 | 0.00 | 1007.5 | |
| 20260504173403 | 70 | 212 | 3.0 | 11.0 | 0.00 | 0.00 | 0.00 | 1008.2 | |
| 20260504172904 | 69 | 185 | 6.0 | 10.0 | 0.00 | 0.00 | 0.00 | 1007.8 | |
| 20260504172403 | 70 | 202 | 4.0 | 8.0 | 0.00 | 0.00 | 0.00 | 1007.8 | |
| 20260504171903 | 70 | 217 | 4.0 | 8.0 | 0.00 | 0.00 | 0.00 | 1008.2 | |
| 20260504171402 | 70 | 228 | 3.0 | 12.0 | 0.00 | 0.00 | 0.00 | 1007.8 | |
| 20260504170903 | 69 | 196 | 4.0 | 12.0 | 0.00 | 0.00 | 0.00 | 1007.5 | |
| 20260504170404 | 69 | 199 | 4.0 | 10.0 | 0.00 | 0.00 | 0.00 | 1008.2 |